Weather in Halaç

Turkmenistan     38°04′15″N   64°52′58″E
temp.,
°C
wind,
m/s
gust,
m/s
humid.,
%
clouds,
%
prec.,
mm/h
press.,
hPa
HPBL,
m
24 june, thu
thu2423:00+27nnw58160 0.0 1008102
02:00+25n45180 0.0 100751
05:00+22nnw33220 0.0 100722
08:00+28nnw46170 0.0 1009352
11:00+35nw55100 0.0 10081842
14:00+38nw5580 0.0 10062743
17:00+38nnw7770 0.0 10043160
20:00+33nw5690 0.0 100463
25 june, fri
fri2523:00+29nnw611170 0.0 1005161
02:00+27nnw59190 0.0 1005103
05:00+26nnw46210 0.0 100560
08:00+31n45190 0.0 1005308
11:00+38n77140 0.0 10053369
14:00+39nnw66120 0.0 10033861
17:00+38nnw107140 0.0 10023850
20:00+33n913150 0.0 1003350
26 june, sat
sat2623:00+29nnw71490 0.0 1004245
02:00+26nnw611140 0.0 1003194
05:00+24nnw58170 0.0 1003139
08:00+28nnw67150 0.0 1005471
11:00+35nnw66110 0.0 10051531
14:00+38nw5590 0.0 10032712
17:00+39nw6580 0.0 10013198
20:00+34wnw57100 0.0 100270
27 june, sun
sun2723:00+29nnw58150 0.0 1002102
02:00+27nnw45180 0.0 100257
05:00+24nnw45200 0.0 100458
08:00+29nnw45160 0.0 1006342
11:00+37nw55100 0.0 10051477
14:00+40wnw4480 0.0 10043002
17:00+40wnw4470 0.0 10032974
20:00+34nw44100 0.0 100322
28 june, mon
mon2823:00+30nw56130 0.0 100564
02:00+27nnw57140 0.0 100483
05:00+26nnw45140 0.0 100548
08:00+31nw45123 0.0 1006265
11:00+38nw6580 0.0 10052222
14:00+41wnw5460 0.0 10043176
17:00+41nw5550 0.0 10033533
20:00+35nw5680 0.0 100461